Location: Altamira
(10.5079°N, 66.8544°W)
Time: 17:58:08
(UTC+00:00)

Palapa 6 Rocket - Pass Details

Date: 13 December 2025
Orbit: 481 x 1158 km, 22.7° (Epoch: 13 January)

Event Time Altitude Azimuth Distance (km) Brightness Sun altitude
Rises 22:32:21 0° 267° (W) 2,906 8.1 -6.5°
Reaches altitude 10° 22:35:02 10° 276° (W) 1,895 6.7 -7.1°
Maximum altitude 22:38:57 33° 342° (NNW) 897 3.9 -8.0°
Drops below altitude 10° 22:42:27 10° 48° (NE) 1,685 4.7 -8.8°
Enters shadow 22:42:28 10° 48° (NE) 1,691 4.7 -8.8°
